Barksdale AFB, LA

7:25 PM CDT on April 25, 2018 (GMT -0500)
Barksdale Air Force Base

Weather History for KBAD - November, 2012

Change the Weather History Date:

Monday, November 19, 2012

  Actual Average Record
Temperature  
Mean Temperature 58 °F -  
Max Temperature 70 °F 63 °F 76 °F (2011)
Min Temperature 45 °F 43 °F 25 °F (2014)
Degree Days  
Heating Degree Days 8    
Growing Degree Days 8 (Base 50)    
Moisture  
Dew Point 42 °F    
Average Humidity 62    
Maximum Humidity 84    
Minimum Humidity 30    
Precipitation  
Precipitation 0.00 in - - ()
Sea Level Pressure  
Sea Level Pressure 30.24 in    
Wind  
Wind Speed 1 mph (SSE)    
Max Wind Speed 6 mph    
Max Gust Speed -    
Visibility 10 miles    
Events      
Averages and records for this station are not official NWS values.
T = Trace of Precipitation, MM = Missing Value Source: NWS Daily Summary

Daily Weather History Graph

Daily Weather History Graph

Search for Another Location

Airport or City:

Astronomy

Nov. 19, 2012 Rise Set
Actual Time 6:48 AM CST 5:11 PM CST
Civil Twilight 6:22 AM CST 5:38 PM CST
Nautical Twilight 5:52 AM CST 6:07 PM CST
Astronomical Twilight 5:22 AM CST 6:37 PM CST
Moon 11:58 AM CST (11/19) 11:30 PM CST (11/19)
Length of Visible Light 11h 15m
Length of Day
10h 23m
Waxing Crescent, 41% of the Moon is Illuminated
Nov 19
Waxing Crescent
Nov 20
First Quarter
Nov 28
Full
Dec 6
Last Quarter
Dec 13
New

Hourly Weather History & Observations

Time (CST) Temp. Dew Point Humidity Pressure Visibility Wind Dir Wind Speed Gust Speed Precip Events Conditions
12:55 AM 46.4 °F 39.4 °F 77% 30.28 in 10.0 mi Calm Calm - N/A   Overcast
1:55 AM 47.7 °F 38.8 °F 71% 30.28 in 10.0 mi Calm Calm - N/A   Mostly Cloudy
2:55 AM 46.4 °F 39.9 °F 78% 30.28 in 10.0 mi Calm Calm - N/A   Overcast
3:55 AM 46.4 °F 39.9 °F 78% 30.27 in 10.0 mi Calm Calm - N/A   Mostly Cloudy
4:55 AM 45.7 °F 41.2 °F 84% 30.27 in 10.0 mi Calm Calm - N/A   Overcast
5:55 AM 45.5 °F 41.0 °F 84% 30.27 in 10.0 mi Calm Calm - N/A   Mostly Cloudy
6:55 AM 45.7 °F 39.7 °F 80% 30.28 in 10.0 mi Calm Calm - N/A   Partly Cloudy
7:55 AM 48.2 °F 42.3 °F 80% 30.29 in 10.0 mi Calm Calm - N/A   Mostly Cloudy
8:55 AM 53.4 °F 41.9 °F 65% 30.32 in 10.0 mi SSE 3.5 mph - N/A   Scattered Clouds
9:55 AM 60.6 °F 40.8 °F 48% 30.31 in 10.0 mi South 5.8 mph - N/A   Partly Cloudy
10:55 AM 63.7 °F 40.1 °F 42% 30.30 in 10.0 mi South 4.6 mph - N/A   Mostly Cloudy
11:55 AM 65.8 °F 40.3 °F 39% 30.27 in 10.0 mi Variable 3.5 mph - N/A   Scattered Clouds
12:55 PM 68.0 °F 41.5 °F 38% 30.24 in 10.0 mi Calm Calm - N/A   Clear
1:55 PM 69.6 °F 40.8 °F 35% 30.20 in 10.0 mi Variable 3.5 mph - N/A   Clear
2:55 PM 70.0 °F 36.7 °F 30% 30.19 in 10.0 mi SSW 3.5 mph - N/A   Mostly Cloudy
3:55 PM 70.2 °F 37.4 °F 30% 30.19 in 10.0 mi South 3.5 mph - N/A   Clear
4:55 PM 66.7 °F 40.8 °F 39% 30.19 in 10.0 mi East 3.5 mph - N/A   Clear
5:55 PM 58.3 °F 44.2 °F 60% 30.20 in 10.0 mi Calm Calm - N/A   Partly Cloudy
6:55 PM 55.9 °F 44.1 °F 64% 30.20 in 10.0 mi SSE 3.5 mph - N/A   Mostly Cloudy
7:55 PM 55.8 °F 46.6 °F 71% 30.21 in 10.0 mi Calm Calm - N/A   Clear
8:55 PM 54.0 °F 44.8 °F 71% 30.21 in 10.0 mi Calm Calm - N/A   Mostly Cloudy
9:55 PM 52.2 °F 46.0 °F 80% 30.20 in 10.0 mi East 4.6 mph - N/A   Overcast
10:55 PM 53.2 °F 45.3 °F 74% 30.20 in 10.0 mi Calm Calm - N/A   Overcast
11:55 PM 53.2 °F 45.7 °F 76% 30.19 in 10.0 mi Calm Calm - N/A   Mostly Cloudy